Date String (YYYY-MM-DD hh:mm:ss) UTC,Instrument flags,Ambient pressure (hPa),Sample flow (lpm),Bypass flow (lpm),Sample temperature (°C),Ambient temperature (°C),ASC tube jacket temperature (°C),LED temperature (°C),Box temperature (°C),Sample RH (%),Span deviation,Mass concentration (μg/m³),Mass concentration (μg/m³),Mass concentration (μg/m³)
DateTimeUTC,F1_M11,P_M11,Q1_M11,Q2_M11,T1_M11,T2_M11,T3_M11,T4_M11,T5_M11,U1_M11,ZSPAN_M11,X0_M11,X2_M11,X1_M11
2021-09-15 02:00:00,,0827.4,5.01,0.00,29.7,28.8,00.0,38.7,31.6,31.3,0000.1,0021.43,0009.92,0008.45
2021-09-15 02:01:00,,0827.5,4.98,0.00,29.8,28.9,00.0,38.7,31.6,31.5,0000.1,0021.47,0009.87,0008.40
2021-09-15 02:02:00,,0827.5,5.00,0.00,29.8,28.9,00.0,38.8,31.6,31.4,0000.1,0021.93,0009.89,0008.37
2021-09-15 02:03:00,,0827.5,5.00,0.00,29.8,27.9,00.0,38.7,31.3,31.2,0000.2,0022.38,0009.82,0008.32
2021-09-15 02:04:00,,0827.5,4.99,0.00,29.6,26.0,00.0,38.7,30.8,31.5,0000.2,0022.97,0009.82,0008.31
2021-09-15 02:05:00,,0827.5,5.02,0.00,29.4,25.3,00.0,38.7,30.6,31.7,0000.0,0022.74,0009.82,0008.28
2021-09-15 02:06:00,,0827.5,4.99,0.00,29.3,25.5,00.0,38.6,30.6,31.8,-000.2,0021.25,0009.75,0008.24
2021-09-15 02:07:00,,0827.5,5.01,0.00,29.2,26.0,00.0,38.6,30.8,31.9,0000.0,0020.76,0009.67,0008.19
2021-09-15 02:08:00,,0827.6,4.99,0.00,29.2,26.5,00.0,38.5,30.9,31.9,0000.7,0020.49,0009.60,0008.12
2021-09-15 02:09:00,,0827.5,5.00,0.00,29.2,26.9,00.0,38.5,30.9,32.1,0000.9,0019.68,0009.52,0008.11
2021-09-15 02:10:00,,0827.5,5.00,0.00,29.2,27.2,00.0,38.5,31.0,32.4,0001.1,0019.56,0009.49,0008.10
2021-09-15 02:11:00,,0827.5,4.99,0.00,29.2,27.5,00.0,38.5,31.0,32.5,0001.4,0019.33,0009.47,0008.07
2021-09-15 02:12:00,,0827.6,5.01,0.00,29.3,27.7,00.0,38.4,31.1,32.3,0001.6,0019.70,0009.48,0008.04
2021-09-15 02:13:00,,0827.5,4.99,0.00,29.3,27.9,00.0,38.4,31.1,32.2,0001.6,0019.38,0009.36,0007.98
2021-09-15 02:14:00,,0827.6,5.01,0.00,29.3,28.0,00.0,38.4,31.2,32.0,0001.3,0018.45,0009.28,0007.91
2021-09-15 02:15:00,,0827.6,5.00,0.00,29.4,28.1,00.0,38.5,31.2,31.9,0000.8,0018.16,0009.23,0007.84
2021-09-15 02:16:00,,0827.6,4.99,0.00,29.4,28.2,00.0,38.5,31.2,31.8,0000.6,0018.66,0009.15,0007.79
2021-09-15 02:17:00,,0827.7,5.01,0.00,29.4,28.3,00.0,38.5,31.3,31.8,0000.5,0018.62,0009.13,0007.77
2021-09-15 02:18:00,,0827.7,4.99,0.00,29.4,28.4,00.0,38.5,31.3,31.8,0000.1,0018.68,0009.09,0007.73
2021-09-15 02:19:00,,0827.7,5.00,0.00,29.5,28.5,00.0,38.5,31.3,31.6,-000.7,0018.77,0009.06,0007.71
2021-09-15 02:20:00,,0827.7,5.00,0.00,29.5,28.5,00.0,38.5,31.3,31.5,-001.2,0018.98,0009.03,0007.67
2021-09-15 02:21:00,,0827.7,5.01,0.00,29.5,28.6,00.0,38.5,31.3,31.4,-001.3,0019.08,0008.94,0007.62
2021-09-15 02:22:00,,0827.7,4.99,0.00,29.5,28.6,00.0,38.5,31.4,31.5,-001.4,0018.61,0008.85,0007.56
2021-09-15 02:23:00,,0827.7,5.00,0.00,29.5,28.7,00.0,38.6,31.4,31.4,-001.2,0018.20,0008.78,0007.51
2021-09-15 02:24:00,,0827.7,5.02,0.00,29.6,28.7,00.0,38.6,31.4,31.4,-001.2,0018.47,0008.76,0007.50
2021-09-15 02:25:00,,0827.7,5.00,0.00,29.6,28.7,00.0,38.6,31.4,31.4,-001.2,0018.97,0008.78,0007.48
2021-09-15 02:26:00,,0827.7,4.99,0.00,29.6,28.8,00.0,38.6,31.4,31.3,-000.3,0019.73,0008.72,0007.46
2021-09-15 02:27:00,,0827.7,5.00,0.00,29.6,28.8,00.0,38.6,31.4,31.2,0000.0,0019.66,0008.68,0007.45
2021-09-15 02:28:00,,0827.7,4.99,0.00,29.6,28.8,00.0,38.7,31.4,31.1,0000.2,0020.07,0008.62,0007.41
2021-09-15 02:29:00,,0827.7,5.01,0.00,29.7,28.9,00.0,38.7,31.5,31.1,0000.5,0020.08,0008.55,0007.39
2021-09-15 02:30:00,,0827.7,4.99,0.00,29.7,28.9,00.0,38.7,31.5,31.0,0000.9,0019.87,0008.55,0007.35
2021-09-15 02:31:00,,0827.7,5.01,0.00,29.7,28.9,00.0,38.7,31.5,30.9,0001.2,0020.13,0008.50,0007.30
2021-09-15 02:32:00,,0827.7,4.99,0.00,29.7,28.5,00.0,38.7,31.4,30.5,0001.4,0019.74,0008.42,0007.22
2021-09-15 02:33:00,,0827.7,5.00,0.00,29.6,26.7,00.0,38.7,31.0,30.6,0001.2,0020.28,0008.35,0007.16
2021-09-15 02:34:00,,0827.7,5.00,0.00,29.5,26.1,00.0,38.7,30.8,30.8,0001.1,0020.30,0008.32,0007.09
2021-09-15 02:35:00,,0827.7,5.00,0.00,29.4,26.3,00.0,38.6,30.8,31.0,0001.2,0019.54,0008.28,0007.01
2021-09-15 02:36:00,,0827.7,5.00,0.00,29.3,26.7,00.0,38.6,30.9,31.0,0001.3,0018.79,0008.16,0006.94
2021-09-15 02:37:00,,0827.7,5.00,0.00,29.3,27.1,00.0,38.6,31.0,31.1,0001.1,0017.55,0008.10,0006.87
2021-09-15 02:38:00,,0827.8,5.00,0.00,29.3,27.4,00.0,38.5,31.0,31.2,0001.0,0017.34,0008.09,0006.78
2021-09-15 02:39:00,,0827.8,4.98,0.00,29.3,27.7,00.0,38.5,31.1,31.2,0001.2,0016.73,0008.06,0006.71
2021-09-15 02:40:00,,0827.8,5.01,0.00,29.4,27.9,00.0,38.5,31.1,31.2,0001.3,0015.78,0007.98,0006.64
2021-09-15 02:41:00,,0827.8,5.01,0.00,29.4,28.0,00.0,38.5,31.2,31.2,0001.6,0016.14,0007.90,0006.60
2021-09-15 02:42:00,,0827.8,4.99,0.00,29.4,28.1,00.0,38.5,31.2,31.1,0001.9,0016.13,0007.83,0006.57
2021-09-15 02:43:00,,0827.8,5.00,0.00,29.4,28.3,00.0,38.5,31.2,31.0,0001.8,0016.54,0007.82,0006.55
2021-09-15 02:44:00,,0827.8,5.01,0.00,29.4,28.4,00.0,38.5,31.2,31.0,0001.8,0015.74,0007.82,0006.55
2021-09-15 02:45:00,,0827.8,4.99,0.00,29.5,28.4,00.0,38.5,31.3,30.9,0002.1,0015.63,0007.82,0006.55
2021-09-15 02:46:00,,0827.8,4.99,0.00,29.5,28.5,00.0,38.6,31.3,30.8,0002.1,0016.78,0007.77,0006.56
2021-09-15 02:47:00,,0827.9,5.02,0.00,29.5,28.6,00.0,38.6,31.3,30.8,0002.0,0017.05,0007.78,0006.56
2021-09-15 02:48:00,,0827.9,5.00,0.00,29.5,28.6,00.0,38.6,31.3,30.8,0002.2,0017.34,0007.81,0006.56
2021-09-15 02:49:00,,0827.9,4.98,0.00,29.5,28.6,00.0,38.6,31.3,30.7,0002.6,0017.39,0007.75,0006.56
2021-09-15 02:50:00,,0827.9,5.00,0.00,29.5,28.7,00.0,38.6,31.3,30.8,0002.4,0017.27,0007.71,0006.56
2021-09-15 02:51:00,,0827.9,5.00,0.00,29.5,28.7,00.0,38.6,31.3,30.7,0002.3,0017.59,0007.70,0006.57
2021-09-15 02:52:00,,0827.9,5.00,0.00,29.6,28.7,00.0,38.6,31.3,30.7,0002.1,0017.83,0007.73,0006.57
2021-09-15 02:53:00,,0827.9,5.01,0.00,29.6,28.8,00.0,38.6,31.4,30.7,0001.6,0017.00,0007.74,0006.57
2021-09-15 02:54:00,,0827.8,4.99,0.00,29.6,28.8,00.0,38.7,31.4,30.7,0001.7,0016.10,0007.75,0006.57
2021-09-15 02:55:00,,0827.9,5.00,0.00,29.6,28.8,00.0,38.7,31.4,30.6,0001.8,0017.00,0007.70,0006.54
2021-09-15 02:56:00,,0827.9,5.01,0.00,29.6,28.8,00.0,38.7,31.4,30.6,0001.8,0017.88,0007.69,0006.52
2021-09-15 02:57:00,,0827.9,4.98,0.00,29.6,28.8,00.0,38.7,31.4,30.6,0001.1,0017.45,0007.64,0006.51
2021-09-15 02:58:00,,0827.9,5.00,0.00,29.6,28.9,00.0,38.7,31.4,30.5,0001.3,0018.33,0007.60,0006.51
2021-09-15 02:59:00,,0827.9,5.00,0.00,29.7,28.9,00.0,38.7,31.4,30.2,0000.9,0018.14,0007.55,0006.51
